Terminal Aerodrome Forecast
Issued by NWS Aberdeen, SD

Home | Current Version | Previous Version | Text Only | Print | Product List | Glossary On
Versions: 1 2 3 4 5 6 7 8 9 10 11 12 13 14 15 16 17 18 19 20 21 22 23 24 25 26 27 28 29 30 31 32 33 34 35 36 37 38 39 40 41 42 43 44 45 46 47 48 49 50
114
FTUS43 KABR 080312 AAB
TAFABR
TAF AMD
KABR 080312Z 0803/0824 35016KT P6SM OVC030
     FM080900 33025G36KT 5SM -SN BLSN OVC050
     FM081900 34020G30KT P6SM BKN250=

USA.gov is the U.S. government's official web portal to all federal, state and local government web resources and services.